TimeEDT,TemperatureF,Dew PointF,Humidity,Sea Level PressureIn,VisibilityMPH,Wind Direction,Wind SpeedMPH,Gust SpeedMPH,PrecipitationIn,Events,Conditions,WindDirDegrees,DateUTC
12:51 AM,33.8,23.0,65,30.44,10.0,West,4.6,-,N/A,,Clear,280,2012-10-13 04:51:00
1:51 AM,32.0,24.8,75,30.44,10.0,Calm,Calm,-,N/A,,Clear,0,2012-10-13 05:51:00
2:51 AM,28.4,24.8,86,30.43,10.0,Calm,Calm,-,N/A,,Clear,0,2012-10-13 06:51:00
3:51 AM,28.0,25.0,88,30.46,10.0,Calm,Calm,-,N/A,,Clear,0,2012-10-13 07:51:00
4:51 AM,27.0,23.0,85,30.48,10.0,SSE,4.6,-,N/A,,Clear,160,2012-10-13 08:51:00
5:51 AM,27.0,23.0,85,30.48,10.0,Calm,Calm,-,N/A,,Clear,0,2012-10-13 09:51:00
6:51 AM,26.6,23.0,86,30.48,10.0,Calm,Calm,-,N/A,,Partly Cloudy,0,2012-10-13 10:51:00
7:51 AM,28.0,24.1,85,30.51,10.0,Calm,Calm,-,N/A,,Clear,0,2012-10-13 11:51:00
8:51 AM,33.1,27.0,78,30.52,10.0,South,4.6,-,N/A,,Clear,190,2012-10-13 12:51:00
9:51 AM,39.0,27.0,62,30.51,10.0,Variable,3.5,-,N/A,,Clear,0,2012-10-13 13:51:00
10:51 AM,42.8,24.8,49,30.50,10.0,Variable,3.5,-,N/A,,Clear,0,2012-10-13 14:51:00
11:51 AM,46.9,23.0,39,30.49,10.0,South,5.8,-,N/A,,Clear,170,2012-10-13 15:51:00
12:51 PM,48.9,23.0,36,30.45,10.0,SSW,8.1,-,N/A,,Partly Cloudy,200,2012-10-13 16:51:00
1:51 PM,50.0,23.0,35,30.41,10.0,Variable,3.5,-,N/A,,Scattered Clouds,0,2012-10-13 17:51:00
2:51 PM,51.1,24.1,35,30.39,10.0,South,9.2,-,N/A,,Mostly Cloudy,180,2012-10-13 18:51:00
3:51 PM,50.0,24.1,36,30.38,10.0,Variable,4.6,-,N/A,,Mostly Cloudy,0,2012-10-13 19:51:00
4:51 PM,50.0,25.0,38,30.36,10.0,Variable,4.6,-,N/A,,Overcast,0,2012-10-13 20:51:00
5:51 PM,48.0,25.0,41,30.36,10.0,SE,3.5,-,N/A,,Mostly Cloudy,140,2012-10-13 21:51:00
6:51 PM,46.9,26.1,44,30.35,10.0,SE,4.6,-,N/A,,Overcast,140,2012-10-13 22:51:00
7:51 PM,46.9,26.1,44,30.32,10.0,SSE,4.6,-,N/A,,Overcast,150,2012-10-13 23:51:00
8:51 PM,46.9,25.0,42,30.28,10.0,SSE,6.9,-,N/A,,Overcast,150,2012-10-14 00:51:00
9:51 PM,48.2,26.6,43,30.27,10.0,South,8.1,-,N/A,,Overcast,180,2012-10-14 01:51:00
10:51 PM,48.9,26.1,41,30.25,10.0,South,8.1,-,N/A,,Overcast,170,2012-10-14 02:51:00
11:51 PM,48.2,28.4,46,30.25,10.0,South,9.2,-,N/A,Rain,Light Rain,180,2012-10-14 03:51:00